EW7349 Weather Reports


Display with metric or nautical units.
time (UTC)temp
F
wind
direction
speed
MPH
gust
MPH
rain 1hr
in
rain 24hr
in
rain mn
in
humidity
%
barometer
mb
20260507003551 68 234 0.0 0.0 0.00 0.15 0.15 81 1008.8
20260507003045 68 234 0.0 0.0 0.00 0.15 0.15 81 1008.6
20260507002539 68 234 0.0 2.0 0.00 0.15 0.15 81 1008.6
20260507002254 68 234 0.0 3.0 0.00 0.15 0.15 81 1008.6
20260507001534 68 240 0.0 3.0 0.00 0.15 0.15 81 1008.7
20260507001035 69 269 0.0 2.0 0.00 0.15 0.15 81 1008.6
20260507000532 69 271 1.0 6.0 0.00 0.15 0.15 81 1008.6
20260507000306 69 272 1.0 6.0 0.00 0.15 0.15 80 1008.5
20260506235532 69 229 1.0 4.0 0.00 0.15 0.15 80 1008.4
20260506235032 69 225 1.0 5.0 0.00 0.15 0.15 80 1008.2
20260506234532 69 159 1.0 6.0 0.00 0.15 0.15 79 1008.1
20260506234032 69 221 1.0 6.0 0.00 0.15 0.15 80 1008.1
20260506233532 69 299 1.0 7.0 0.00 0.15 0.15 79 1008.1
20260506233514 69 117 1.0 7.0 0.00 0.15 0.15 79 1008.0
20260506232527 69 246 1.0 6.0 0.00 0.15 0.15 79 1007.9
20260506232029 70 227 1.0 6.0 0.00 0.15 0.15 79 1007.9
20260506231746 70 126 1.0 6.0 0.00 0.15 0.15 79 1008.0
20260506231029 70 260 1.0 4.0 0.00 0.15 0.15 79 1008.0
20260506230801 70 234 2.0 6.0 0.00 0.15 0.15 78 1008.1
20260506230027 70 251 2.0 6.0 0.00 0.15 0.15 79 1007.9
20260506225529 70 254 2.0 8.0 0.00 0.15 0.15 78 1007.9
20260506225028 70 198 2.0 8.0 0.00 0.15 0.15 79 1007.9
20260506224529 70 218 1.0 8.0 0.00 0.15 0.15 79 1008.0
20260506224025 70 171 1.0 6.0 0.00 0.15 0.15 79 1007.9
20260506223523 70 248 1.0 6.0 0.00 0.15 0.15 80 1007.9
20260506223025 70 261 1.0 3.0 0.00 0.15 0.15 81 1007.9
20260506222525 70 287 1.0 4.0 0.00 0.15 0.15 81 1008.0
20260506222024 70 223 1.0 6.0 0.00 0.15 0.15 81 1008.0
20260506221524 70 210 0.0 6.0 0.00 0.15 0.15 81 1008.0
20260506221249 70 209 0.0 4.0 0.00 0.15 0.15 80 1007.9
20260506220524 70 209 1.0 4.0 0.00 0.15 0.15 81 1007.8
20260506220239 70 275 1.0 4.0 0.00 0.15 0.15 80 1007.8
20260506215518 69 228 1.0 5.0 0.00 0.15 0.15 81 1008.0
20260506215016 69 227 1.0 5.0 0.00 0.15 0.15 81 1008.0
20260506214516 69 194 1.0 5.0 0.00 0.15 0.15 80 1007.9
20260506214010 69 126 1.0 5.0 0.00 0.15 0.15 80 1007.9
20260506213511 69 215 1.0 3.0 0.00 0.15 0.15 81 1008.0
20260506213008 69 84 2.0 6.0 0.00 0.15 0.15 80 1008.1
20260506212505 69 208 1.0 6.0 0.00 0.15 0.15 79 1008.1
20260506212005 69 263 1.0 3.0 0.00 0.15 0.15 81 1008.0
20260506211503 69 90 0.0 3.0 0.00 0.15 0.15 80 1007.9
20260506211004 69 80 1.0 5.0 0.00 0.15 0.15 80 1007.8
20260506210503 69 262 2.0 5.0 0.00 0.15 0.15 81 1007.9
20260506210003 69 58 1.0 4.0 0.00 0.15 0.15 82 1007.7
20260506205726 69 275 1.0 6.0 0.00 0.15 0.15 82 1007.8
20260506205003 69 249 2.0 9.0 0.00 0.15 0.15 81 1007.8
20260506204734 69 212 2.0 9.0 0.00 0.15 0.15 82 1007.7
20260506204221 68 192 2.0 8.0 0.00 0.15 0.15 81 1007.9
20260506203459 68 232 1.0 7.0 0.00 0.15 0.15 82 1007.7
20260506203000 68 300 2.0 6.0 0.00 0.15 0.15 82 1007.8
20260506202725 68 173 2.0 8.0 0.00 0.15 0.15 82 1007.9
20260506202000 68 142 2.0 8.0 0.00 0.15 0.15 81 1007.8
20260506201459 68 154 1.0 5.0 0.00 0.15 0.15 81 1007.7
20260506201000 69 249 1.0 4.0 0.00 0.15 0.15 84 1007.9
20260506200453 69 280 1.0 4.0 0.00 0.15 0.15 81 1007.8
20260506200440 68 297 2.0 10.0 0.00 0.15 0.15 82 1007.8
20260506195442 68 118 2.0 10.0 0.00 0.15 0.15 83 1007.9
20260506194936 68 234 2.0 5.0 0.00 0.15 0.15 81 1007.8
20260506194430 67 121 2.0 6.0 0.00 0.15 0.15 83 1007.8
20260506193922 67 270 2.0 9.0 0.00 0.15 0.15 83 1008.0
20260506193417 67 128 2.0 9.0 0.00 0.15 0.15 84 1008.0
20260506192910 67 35 2.0 9.0 0.00 0.15 0.15 84 1008.0
20260506192404 66 331 3.0 10.0 0.00 0.15 0.15 85 1008.0
20260506191858 66 294 3.0 10.0 0.00 0.15 0.15 84 1008.2
20260506191352 66 278 2.0 7.0 0.00 0.15 0.15 84 1008.1
20260506191111 66 237 2.0 10.0 0.00 0.15 0.15 84 1008.5
20260506190339 66 250 2.0 10.0 0.00 0.15 0.15 85 1008.5
20260506185550 66 225 2.0 9.0 0.00 0.15 0.15 85 1008.6
20260506184822 66 271 2.0 7.0 0.00 0.15 0.15 84 1008.7
20260506184316 66 230 2.0 4.0 0.00 0.15 0.15 85 1008.8
20260506183811 66 15 2.0 7.0 0.00 0.15 0.15 86 1008.7
20260506183305 66 260 2.0 7.0 0.00 0.15 0.15 85 1009.0
20260506182759 66 164 2.0 7.0 0.00 0.15 0.15 85 1008.6
20260506182252 65 194 2.0 7.0 0.00 0.15 0.15 85 1008.8
20260506181746 65 127 1.0 4.0 0.00 0.15 0.15 86 1008.6
20260506181241 65 153 1.0 7.0 0.00 0.15 0.15 85 1008.7
20260506180735 65 209 1.0 7.0 0.00 0.15 0.15 85 1008.8
20260506180715 65 140 2.0 5.0 0.00 0.15 0.15 85 1008.7
20260506175722 65 140 2.0 9.0 0.00 0.15 0.15 87 1008.7
20260506175645 65 267 2.0 9.0 0.00 0.15 0.15 85 1009.0
20260506175306 65 148 2.0 9.0 0.00 0.15 0.15 86 1008.9
20260506174425 65 165 2.0 6.0 0.00 0.15 0.15 86 1008.9
20260506173658 65 115 2.0 9.0 0.00 0.15 0.15 86 1008.9
20260506173152 65 178 2.0 9.0 0.00 0.15 0.15 86 1009.0
20260506172646 64 198 2.0 9.0 0.00 0.15 0.15 86 1009.2
20260506172143 64 251 2.0 9.0 0.00 0.15 0.15 87 1009.3
20260506171904 64 273 2.0 11.0 0.00 0.15 0.15 87 1009.2
20260506171406 64 214 3.0 11.0 0.00 0.15 0.15 86 1009.2
20260506170643 64 241 3.0 11.0 0.00 0.15 0.15 86 1009.3
20260506170143 64 162 2.0 11.0 0.00 0.15 0.15 87 1009.4
20260506165642 64 86 3.0 12.0 0.00 0.15 0.15 88 1009.3
20260506165143 64 158 3.0 12.0 0.00 0.15 0.15 86 1009.4
20260506164643 64 234 3.0 11.0 0.00 0.15 0.15 87 1009.2
20260506164143 64 154 3.0 12.0 0.00 0.15 0.15 87 1009.4
20260506163643 63 143 3.0 15.0 0.00 0.15 0.15 87 1009.3
20260506163142 63 240 3.0 15.0 0.00 0.15 0.15 89 1009.3
20260506162643 63 185 3.0 12.0 0.00 0.15 0.15 89 1009.4
20260506162143 63 198 3.0 12.0 0.00 0.15 0.15 90 1009.4
20260506161646 63 89 3.0 9.0 0.00 0.15 0.15 92 1009.6
20260506161144 62 181 3.0 11.0 0.00 0.15 0.15 91 1009.5
20260506160909 62 221 3.0 11.0 0.00 0.15 0.15 91 1009.5
20260506160145 61 185 3.0 13.0 0.00 0.15 0.15 91 1009.6
20260506155640 62 240 2.0 13.0 0.00 0.15 0.15 92 1009.6
20260506155133 62 173 2.0 11.0 0.01 0.15 0.15 92 1009.4
20260506154627 62 254 3.0 8.0 0.01 0.15 0.15 92 1009.6
20260506154123 62 233 3.0 8.0 0.01 0.15 0.15 92 1009.6
20260506153623 62 242 2.0 8.0 0.01 0.15 0.15 92 1009.7
20260506153122 62 220 2.0 8.0 0.03 0.15 0.15 93 1009.6
20260506152621 62 101 2.0 10.0 0.04 0.15 0.15 93 1009.6
20260506152120 61 188 3.0 10.0 0.05 0.15 0.15 93 1009.6
20260506151836 61 294 2.0 10.0 0.07 0.15 0.15 93 1009.7
20260506151336 61 136 2.0 9.0 0.08 0.15 0.15 94 1009.6
20260506150836 61 137 3.0 12.0 0.09 0.15 0.15 94 1009.5
20260506150113 61 209 3.0 12.0 0.09 0.15 0.15 94 1009.7
20260506145843 60 230 2.0 6.0 0.09 0.15 0.15 93 1009.9
20260506145114 60 191 1.0 6.0 0.08 0.14 0.14 93 1009.9
20260506145031 60 97 2.0 7.0 0.08 0.14 0.14 93 1010.0
20260506144701 60 294 1.0 7.0 0.08 0.14 0.14 93 1009.9
20260506143610 60 139 2.0 7.0 0.08 0.14 0.14 92 1010.1
20260506143107 61 229 2.0 7.0 0.07 0.12 0.12 91 1010.1
20260506142608 61 132 2.0 6.0 0.07 0.11 0.11 91 1010.2
20260506142105 61 200 2.0 6.0 0.06 0.10 0.10 91 1010.3
20260506141606 61 215 1.0 5.0 0.05 0.08 0.08 91 1010.3
20260506141100 61 110 1.0 5.0 0.04 0.06 0.06 91 1010.2
20260506140554 61 206 1.0 7.0 0.05 0.06 0.06 91 1010.1
20260506140048 61 291 1.0 7.0 0.05 0.06 0.06 90 1010.1
20260506135816 61 120 0.0 4.0 0.05 0.06 0.06 89 1010.1
20260506135048 61 156 0.0 2.0 0.06 0.06 0.06 89 1010.0
20260506134545 61 125 1.0 3.0 0.06 0.06 0.06 88 1010.0
20260506134044 61 153 1.0 6.0 0.06 0.06 0.06 88 1010.1
20260506133546 61 152 1.0 6.0 0.06 0.06 0.06 87 1010.2
20260506133045 61 78 0.0 3.0 0.05 0.05 0.05 87 1010.3
20260506132545 61 109 0.0 3.0 0.04 0.04 0.04 87 1010.2
20260506132044 62 173 1.0 3.0 0.04 0.04 0.04 86 1010.1
20260506131545 62 109 1.0 7.0 0.03 0.03 0.03 86 1010.2
20260506131046 62 131 1.0 7.0 0.02 0.02 0.02 85 1010.4
20260506130540 62 195 1.0 4.0 0.01 0.01 0.01 85 1010.6
20260506130301 62 257 1.0 6.0 0.01 0.01 0.01 85 1010.4
20260506125540 62 221 1.0 6.0 0.01 0.01 0.01 84 1010.2
20260506125041 62 123 1.0 6.0 0.00 0.00 0.00 83 1010.3
20260506124542 63 221 1.0 6.0 0.00 0.00 0.00 83 1010.3
20260506124042 63 219 1.0 4.0 0.00 0.00 0.00 83 1010.2
20260506123802 63 137 1.0 4.0 0.00 0.00 0.00 83 1010.1
20260506123040 63 53 1.0 4.0 0.00 0.00 0.00 82 1010.0
20260506122543 63 209 1.0 4.0 0.00 0.00 0.00 82 1009.9
20260506122307 63 101 1.0 3.0 0.00 0.00 0.00 82 1010.0
20260506121541 63 202 1.0 3.0 0.00 0.00 0.00 81 1010.0
20260506121531 64 87 1.0 4.0 0.00 0.00 0.00 81 1010.0
20260506120541 64 222 1.0 4.0 0.00 0.00 0.00 80 1009.8
20260506120527 64 113 1.0 5.0 0.00 0.00 0.00 80 1009.9
20260506115810 64 130 1.0 5.0 0.00 0.00 0.00 79 1010.1
20260506115041 64 126 1.0 8.0 0.00 0.00 0.00 78 1010.2
20260506114540 64 132 1.0 8.0 0.00 0.00 0.00 77 1010.3
20260506114043 64 190 2.0 7.0 0.00 0.00 0.00 76 1010.3
20260506113535 65 277 2.0 7.0 0.00 0.00 0.00 76 1010.3
20260506113030 65 188 1.0 6.0 0.00 0.00 0.00 76 1010.2
20260506112523 65 163 2.0 7.0 0.00 0.00 0.00 75 1010.1
20260506112017 65 269 3.0 9.0 0.00 0.00 0.00 74 1010.0
20260506111511 65 74 2.0 9.0 0.00 0.00 0.00 73 1009.9
20260506111010 65 281 2.0 10.0 0.00 0.00 0.00 74 1009.8
20260506110734 65 81 3.0 10.0 0.00 0.00 0.00 73 1009.7
20260506110230 65 298 2.0 7.0 0.00 0.00 0.00 73 1009.6
20260506105506 65 232 2.0 8.0 0.00 0.00 0.00 73 1009.6
20260506105005 65 121 2.0 10.0 0.00 0.00 0.00 73 1009.6
20260506104504 65 63 2.0 10.0 0.00 0.00 0.00 73 1009.6
20260506104003 65 232 2.0 10.0 0.00 0.00 0.00 73 1009.6
20260506103502 65 143 2.0 12.0 0.00 0.00 0.00 73 1009.6
20260506103003 65 143 2.0 12.0 0.00 0.00 0.00 73 1009.5
20260506102505 65 207 3.0 12.0 0.00 0.00 0.00 73 1009.5
20260506102003 65 257 2.0 12.0 0.00 0.00 0.00 73 1009.5
20260506101502 65 132 2.0 9.0 0.00 0.00 0.00 72 1009.5
20260506101003 65 146 2.0 9.0 0.00 0.00 0.00 72 1009.5
20260506100500 65 223 2.0 10.0 0.00 0.00 0.00 72 1009.5
20260506100000 65 250 2.0 10.0 0.00 0.00 0.00 72 1009.6
20260506095502 65 200 2.0 9.0 0.00 0.00 0.00 72 1009.6
20260506095002 65 156 2.0 5.0 0.00 0.00 0.00 72 1009.5
20260506094455 65 115 2.0 7.0 0.00 0.00 0.00 72 1009.4
20260506094220 65 162 2.0 7.0 0.00 0.00 0.00 71 1009.5
20260506093443 65 179 2.0 5.0 0.00 0.00 0.00 71 1009.5
20260506092937 65 202 2.0 5.0 0.00 0.00 0.00 71 1009.6
20260506092431 65 175 2.0 9.0 0.00 0.00 0.00 71 1009.4
20260506091925 65 131 2.0 10.0 0.00 0.00 0.00 71 1009.4
20260506091419 65 115 2.0 10.0 0.00 0.00 0.00 70 1009.5
20260506090913 65 191 2.0 7.0 0.00 0.00 0.00 70 1009.5
20260506090406 65 262 2.0 7.0 0.00 0.00 0.00 70 1009.7
20260506085901 65 182 2.0 10.0 0.00 0.00 0.00 70 1009.7
20260506085619 66 288 2.0 10.0 0.00 0.00 0.00 70 1009.7
20260506085115 66 110 2.0 8.0 0.00 0.00 0.00 70 1009.8
20260506084344 66 128 3.0 10.0 0.00 0.00 0.00 69 1009.7
20260506083837 66 157 3.0 10.0 0.00 0.00 0.00 69 1009.7
20260506083331 66 191 2.0 7.0 0.00 0.00 0.00 69 1009.7
20260506083046 66 193 2.0 7.0 0.00 0.00 0.00 68 1009.8
20260506082805 66 245 2.0 10.0 0.00 0.00 0.00 68 1009.7
20260506081814 66 284 3.0 10.0 0.00 0.00 0.00 68 1009.7
20260506081757 66 241 2.0 10.0 0.00 0.00 0.00 67 1009.8
20260506080801 67 256 2.0 9.0 0.00 0.00 0.00 67 1009.8
20260506080255 67 96 2.0 9.0 0.00 0.00 0.00 67 1009.7
20260506073219 67 140 2.0 8.0 0.00 0.00 0.00 65 1009.8
20260506072714 67 18 2.0 8.0 0.00 0.00 0.00 65 1009.8
20260506072208 67 225 2.0 8.0 0.00 0.00 0.00 64 1009.8
20260506071701 68 119 2.0 8.0 0.00 0.00 0.00 64 1009.8
20260506071156 68 140 1.0 7.0 0.00 0.00 0.00 64 1009.8
20260506070656 68 103 2.0 10.0 0.00 0.00 0.00 63 1009.9
20260506070157 68 226 2.0 10.0 0.00 0.00 0.00 63 1009.9
20260506062150 68 212 2.0 7.0 0.00 0.00 0.00 62 1010.4
20260506061651 69 159 2.0 9.0 0.00 0.00 0.00 62 1010.3
20260506061148 69 248 2.0 9.0 0.00 0.00 0.00 61 1010.3
20260506060645 69 143 2.0 8.0 0.00 0.00 0.00 61 1010.3
20260506060146 69 205 2.0 8.0 0.00 0.00 0.00 61 1010.3
20260506051335 70 47 2.0 9.0 0.00 0.00 0.00 58 1010.6
20260506050605 70 115 2.0 9.0 0.00 0.00 0.00 58 1010.6
20260506044548 70 138 2.0 6.0 0.00 0.00 0.00 57 1010.8
20260506044048 70 139 2.0 4.0 0.00 0.00 0.00 57 1010.7
20260506043547 70 99 2.0 6.0 0.00 0.00 0.00 57 1010.6
20260506043048 70 102 2.0 7.0 0.00 0.00 0.00 56 1010.5
20260506042549 70 267 1.0 7.0 0.00 0.00 0.00 56 1010.7
20260506042048 71 302 2.0 8.0 0.00 0.00 0.00 55 1010.6
20260506041547 71 218 1.0 8.0 0.00 0.00 0.00 55 1010.6
20260506041536 71 58 1.0 4.0 0.00 0.00 0.00 55 1010.6
20260506040549 71 162 2.0 8.0 0.00 0.00 0.00 55 1010.7
20260506040316 71 148 2.0 8.0 0.00 0.00 0.00 55 1010.7
20260506035549 71 109 2.0 7.0 0.00 0.00 0.00 54 1010.6
20260506035048 71 155 2.0 7.0 0.00 0.00 0.00 55 1010.7
20260506034548 71 164 2.0 7.0 0.00 0.00 0.00 54 1010.6
20260506034048 71 169 2.0 8.0 0.00 0.00 0.00 54 1010.6
20260506033548 71 208 2.0 10.0 0.00 0.00 0.00 54 1010.5
20260506033050 71 161 2.0 10.0 0.00 0.00 0.00 54 1010.6
20260506032544 71 154 2.0 8.0 0.00 0.00 0.00 53 1010.6
20260506032038 71 144 2.0 4.0 0.00 0.00 0.00 53 1010.6
20260506031536 71 128 2.0 6.0 0.00 0.00 0.00 53 1010.6
20260506031038 71 115 1.0 6.0 0.00 0.00 0.00 52 1010.7
20260506030537 71 112 2.0 5.0 0.00 0.00 0.00 52 1010.7
20260506030035 71 191 1.0 8.0 0.00 0.00 0.00 52 1010.7
20260506025534 71 141 1.0 8.0 0.00 0.00 0.00 52 1010.7
20260506025034 71 126 1.0 8.0 0.00 0.00 0.00 51 1010.7
20260506024800 71 213 1.0 8.0 0.00 0.00 0.00 51 1010.8
20260506024035 71 130 1.0 3.0 0.00 0.00 0.00 50 1010.8
20260506023534 71 59 1.0 3.0 0.00 0.00 0.00 50 1010.8
20260506023254 71 74 0.0 3.0 0.00 0.00 0.00 49 1010.8
20260506022533 71 120 1.0 3.0 0.00 0.00 0.00 49 1010.8
20260506022251 71 98 1.0 4.0 0.00 0.00 0.00 49 1010.9
20260506021532 72 15 1.0 4.0 0.00 0.00 0.00 49 1010.9
20260506021030 72 216 1.0 4.0 0.00 0.00 0.00 48 1011.0
20260506020530 72 308 1.0 7.0 0.00 0.00 0.00 48 1011.0
20260506020030 72 148 1.0 7.0 0.00 0.00 0.00 47 1011.0
20260506015531 72 236 1.0 6.0 0.00 0.00 0.00 46 1010.9
20260506015030 72 286 1.0 6.0 0.00 0.00 0.00 46 1010.9
20260506014524 73 111 1.0 4.0 0.00 0.00 0.00 45 1010.8
20260506014017 73 128 1.0 5.0 0.00 0.00 0.00 44 1010.7
20260506013739 73 229 1.0 5.0 0.00 0.00 0.00 43 1010.7
20260506013005 73 111 1.0 3.0 0.00 0.00 0.00 43 1010.7
20260506012739 74 90 1.0 3.0 0.00 0.00 0.00 42 1010.5
20260506012004 74 128 1.0 2.0 0.00 0.00 0.00 42 1010.5
20260506011504 74 195 1.0 6.0 0.00 0.00 0.00 42 1010.5
20260506011004 74 250 1.0 6.0 0.00 0.00 0.00 41 1010.5
20260506010945 74 265 1.0 4.0 0.00 0.00 0.00 41 1010.3
20260506010004 74 271 2.0 7.0 0.00 0.00 0.00 41 1010.3
20260506005503 75 154 2.0 9.0 0.00 0.00 0.00 40 1010.3
20260506005003 75 208 1.0 9.0 0.00 0.00 0.00 40 1010.2
20260506004502 75 254 1.0 5.0 0.00 0.00 0.00 40 1010.1
20260506004223 75 156 1.0 5.0 0.00 0.00 0.00 39 1010.0